Simultaneous Nadir Overpasses (SNOs) Predictions

Prediction of SNOs between GOES-15 and METOP-C Satellite Orbit:

Table of predicted SNOs for the next 14.0 days since TLE Epoch: 9/1/2024
Index Date Time (GOES-15) GOES-15 Lat,Lon METOP-C Lat,Lon Distance(km) Time Diff (sec)
1 09/01/2024 17:24:22 0.20, 61.57 0.31, 61.91 39.98 80
2 09/03/2024 05:40:37 -0.24, 61.42 0.69, 57.34 466.26 80
3 09/04/2024 05:22:40 -0.22, 61.41 -0.43, 62.32 103.86 80
4 09/05/2024 17:39:02 0.25, 61.52 -0.62, 57.72 433.39 80
5 09/06/2024 17:21:05 0.23, 61.52 0.51, 62.71 136.47 80
6 09/08/2024 05:37:20 -0.26, 61.38 0.45, 58.13 370.08 80
7 09/09/2024 05:19:21 -0.24, 61.38 -0.63, 63.13 199.55 80
8 09/10/2024 17:35:44 0.26, 61.50 -0.40, 58.53 338.59 80
9 09/11/2024 17:17:45 0.24, 61.50 0.69, 63.52 230.44 80
10 09/13/2024 05:34:00 -0.26, 61.38 0.30, 58.95 277.38 80
11 09/14/2024 05:16:01 -0.25, 61.38 -0.80, 63.94 291.50 80
